{"data":{"norad_id":62852,"intl_designator":"2025-021A","name":"SPAINSAT NG I","alt_names":[],"object_type":"PAYLOAD","status":"ACTIVE","operator":null,"country":"SPN","launch_date":"2025-01-30","launch_site_code":"AFETR","launch_vehicle":null,"mission":null,"orbit_class":"UNKNOWN","rcs_meters":null,"size_class":null,"mass_kg":null,"dimensions":null,"purposes":["comms"],"wikipedia_slug":null,"has_3d_model":false,"image_url":null,"decayed_at":null,"tle_current":{"epoch":"2026-05-25T03:52:53.967936Z","epoch_age_seconds":71246,"freshness":"FRESH","line1":"1 62852U 25021A   26145.16173574  .00000149  00000+0  00000+0 0  9997","line2":"2 62852   0.0111 302.3766 0000224  39.1263 348.4657  1.00272647  3758","mean_motion":1.00272647,"eccentricity":2.24e-5,"inclination_deg":0.0111,"raan_deg":302.3766,"arg_perigee_deg":39.1263,"mean_anomaly_deg":348.4657,"bstar":0,"rev_number":375,"period_min":1436.0845585337,"perigee_km":35785.408828447,"apogee_km":35787.297797613,"semimajor_km":42164.49031303,"source":"CELESTRAK","updated_at":"2026-05-25T13:38:14.151037Z"}}}